EW5826 Weather Reports


Display with metric or nautical units.
time (UTC)temp
F
wind
direction
speed
MPH
gust
MPH
rain 1hr
in
rain 24hr
in
rain mn
in
humidity
%
barometer
mb
20260503045519 36 0.0 2.0 0.00 0.00 0.00 82 1018.4
20260503044518 36 0.0 1.0 0.00 0.00 0.00 81 1018.5
20260503043519 36 0.0 1.0 0.00 0.00 0.00 81 1018.4
20260503042539 37 0.0 3.0 0.00 0.00 0.00 80 1018.4
20260503041518 37 0.0 0.0 0.00 0.00 0.00 80 1018.4
20260503040518 37 0.0 0.0 0.00 0.00 0.00 79 1018.4
20260503040019 37 0.0 1.0 0.00 0.00 0.00 79 1018.5
20260503035058 38 0.0 2.0 0.00 0.00 0.00 77 1018.5
20260503034019 38 0.0 1.0 0.00 0.00 0.00 77 1018.5
20260503033019 39 0.0 2.0 0.00 0.00 0.00 75 1018.5
20260503032018 38 0.0 1.0 0.00 0.00 0.00 75 1018.5
20260503031018 39 0.0 1.0 0.00 0.00 0.00 74 1018.5
20260503030018 40 203 1.0 2.0 0.00 0.00 0.00 74 1018.6
20260503025018 40 0.0 1.0 0.00 0.00 0.00 72 1018.7
20260503024019 41 203 1.0 2.0 0.00 0.00 0.00 71 1018.8
20260503023018 41 0.0 2.0 0.00 0.00 0.00 70 1018.7
20260503022018 42 0.0 2.0 0.00 0.00 0.00 70 1018.7
20260503021018 42 293 1.0 2.0 0.00 0.00 0.00 71 1018.7
20260503020018 42 0.0 0.0 0.00 0.00 0.00 70 1018.7
20260503015018 42 0.0 1.0 0.00 0.00 0.00 71 1018.6
20260503014018 42 0.0 0.0 0.00 0.00 0.00 70 1018.6
20260503013018 42 0.0 1.0 0.00 0.00 0.00 71 1018.5
20260503012018 42 0.0 2.0 0.00 0.00 0.00 69 1018.4
20260503011018 43 0.0 1.0 0.00 0.00 0.00 66 1018.4
20260503010018 43 0.0 1.0 0.00 0.00 0.00 67 1018.5
20260503005019 43 0.0 2.0 0.00 0.00 0.00 65 1018.3
20260503004020 43 0.0 2.0 0.00 0.00 0.00 62 1018.3
20260503003019 43 0.0 1.0 0.00 0.00 0.00 60 1018.3
20260503002018 44 315 1.0 3.0 0.00 0.00 0.00 56 1018.1
20260503001038 45 315 1.0 3.0 0.00 0.00 0.00 55 1018.0
20260503000020 46 315 2.0 4.0 0.00 0.00 0.00 56 1018.2
20260502235018 46 338 1.0 2.0 0.00 0.00 0.00 56 1018.1
20260502234020 47 270 1.0 3.0 0.00 0.00 0.00 52 1018.2
20260502233018 47 293 1.0 4.0 0.00 0.00 0.00 54 1018.2
20260502232018 47 23 2.0 4.0 0.00 0.00 0.00 52 1018.1
20260502231020 47 315 2.0 3.0 0.00 0.00 0.00 54 1018.1
20260502230020 47 315 3.0 8.0 0.00 0.00 0.00 52 1018.2
20260502225018 48 315 4.0 8.0 0.00 0.01 0.00 50 1018.2
20260502224018 49 293 2.0 5.0 0.00 0.01 0.00 50 1018.3
20260502223018 48 315 3.0 8.0 0.00 0.01 0.00 53 1018.4
20260502222020 47 315 4.0 10.0 0.00 0.01 0.00 52 1018.3
20260502221020 47 315 4.0 7.0 0.00 0.01 0.00 52 1018.4
20260502220018 47 315 4.0 9.0 0.00 0.01 0.00 54 1018.3
20260502215018 48 315 4.0 9.0 0.00 0.01 0.00 53 1018.4
20260502214019 48 293 3.0 8.0 0.00 0.01 0.00 54 1018.3
20260502213019 48 315 3.0 8.0 0.00 0.01 0.00 54 1018.3
20260502212039 47 293 5.0 11.0 0.00 0.01 0.00 56 1018.3
20260502211019 48 293 4.0 8.0 0.00 0.01 0.00 54 1018.3
20260502210019 48 315 3.0 8.0 0.00 0.01 0.00 53 1018.2
20260502205019 48 315 4.0 9.0 0.00 0.01 0.00 53 1018.3
20260502204059 48 315 4.0 8.0 0.00 0.01 0.00 55 1018.4
20260502203019 48 315 3.0 11.0 0.00 0.01 0.00 56 1018.4
20260502202019 47 293 4.0 10.0 0.00 0.01 0.00 53 1018.4
20260502201038 48 338 4.0 10.0 0.00 0.01 0.00 55 1018.7
20260502200019 48 315 5.0 10.0 0.00 0.01 0.00 53 1018.6
20260502195039 48 315 4.0 14.0 0.00 0.01 0.00 55 1018.7
20260502194018 49 315 4.0 9.0 0.00 0.01 0.00 53 1018.8
20260502193018 48 315 3.0 8.0 0.00 0.01 0.00 55 1018.8
20260502192018 49 293 7.0 12.0 0.00 0.01 0.00 53 1019.0
20260502191018 49 315 4.0 10.0 0.00 0.01 0.00 55 1019.0
20260502190019 48 315 4.0 8.0 0.00 0.01 0.00 53 1019.1
20260502185019 48 315 4.0 10.0 0.00 0.01 0.00 56 1019.2
20260502184018 48 315 5.0 14.0 0.00 0.01 0.00 55 1019.2
20260502183018 48 293 4.0 10.0 0.00 0.01 0.00 54 1019.3
20260502182018 49 315 4.0 8.0 0.00 0.01 0.00 52 1019.3
20260502181038 48 315 4.0 11.0 0.00 0.01 0.00 53 1019.4
20260502164038 46 315 4.0 12.0 0.00 0.01 0.00 57 1019.9
20260502163059 46 315 4.0 12.0 0.00 0.01 0.00 59 1020.0
20260502162020 46 293 3.0 6.0 0.00 0.01 0.00 59 1020.0
20260502161018 47 315 3.0 8.0 0.00 0.01 0.00 53 1020.1
20260502152038 46 293 3.0 9.0 0.00 0.01 0.00 64 1020.0
20260502151018 46 293 3.0 6.0 0.00 0.02 0.00 60 1020.1
20260502123020 38 315 4.0 10.0 0.00 0.16 0.00 81 1019.1
20260502122039 37 315 5.0 8.0 0.00 0.16 0.00 83 1019.0
20260502121519 37 315 3.0 7.0 0.00 0.16 0.00 84 1019.0
20260502120539 36 315 3.0 7.0 0.00 0.16 0.00 85 1019.0
20260502115518 35 315 2.0 5.0 0.00 0.17 0.00 86 1019.0
20260502114539 34 293 2.0 5.0 0.00 0.18 0.00 87 1019.1
20260502113539 33 315 2.0 4.0 0.00 0.20 0.00 87 1019.0
20260502112518 33 293 1.0 4.0 0.00 0.21 0.00 87 1018.9
20260502111519 33 315 1.0 3.0 0.00 0.23 0.00 87 1018.8
20260502110519 32 315 1.0 3.0 0.00 0.24 0.00 87 1018.7
20260502105518 32 293 1.0 3.0 0.00 0.24 0.00 87 1018.6
20260502104518 32 270 1.0 3.0 0.00 0.24 0.00 87 1018.5
20260502103539 32 293 2.0 3.0 0.00 0.24 0.00 87 1018.4
20260502102518 32 270 2.0 6.0 0.00 0.25 0.00 87 1018.3
20260502101518 32 293 2.0 3.0 0.00 0.26 0.00 86 1018.3
20260502100518 32 270 2.0 6.0 0.00 0.26 0.00 86 1018.3
20260502090518 33 293 2.0 4.0 0.00 0.26 0.00 86 1018.3
20260502071518 35 270 2.0 6.0 0.00 0.28 0.00 82 1018.3
20260502070540 36 270 2.0 6.0 0.00 0.28 0.00 82 1018.3
20260502065520 36 270 2.0 6.0 0.00 0.28 0.00 82 1018.3
20260502064518 36 293 2.0 3.0 0.00 0.28 0.00 82 1018.2
20260502063558 36 270 2.0 4.0 0.00 0.29 0.00 80 1018.3
20260502062520 37 270 2.0 6.0 0.00 0.30 0.00 79 1018.3
20260502061520 37 293 2.0 4.0 0.00 0.30 0.00 79 1018.1
20260502060518 37 293 2.0 4.0 0.00 0.31 0.00 79 1018.2
20260502055518 37 293 2.0 8.0 0.00 0.31 0.00 79 1018.3
20260502054520 37 293 3.0 6.0 0.00 0.31 0.00 79 1018.2
20260502053600 37 293 2.0 6.0 0.00 0.31 0.00 79 1018.0
20260502052520 38 270 3.0 7.0 0.00 0.31 0.00 78 1018.3
20260502051518 38 270 3.0 7.0 0.00 0.31 0.00 76 1018.3
20260502050540 38 293 3.0 7.0 0.00 0.31 0.00 76 1018.1